TimeCDT,TemperatureF,Dew PointF,Humidity,Sea Level PressureIn,VisibilityMPH,Wind Direction,Wind SpeedMPH,Gust SpeedMPH,PrecipitationIn,Events,Conditions,WindDirDegrees,DateUTC
12:15 AM,53.8,53.8,100,29.77,0.5,Calm,Calm,-,N/A,Fog,Fog,0,2013-06-27 05:15:00
12:35 AM,53.8,53.8,100,29.78,0.2,Calm,Calm,-,N/A,Fog,Fog,0,2013-06-27 05:35:00
12:55 AM,53.8,53.8,100,29.78,0.2,Calm,Calm,-,N/A,Fog,Fog,0,2013-06-27 05:55:00
1:15 AM,53.6,53.6,100,29.77,0.5,SSW,4.6,-,N/A,Fog,Fog,210,2013-06-27 06:15:00
1:35 AM,53.6,53.6,100,29.76,1.8,Calm,Calm,-,N/A,,Overcast,0,2013-06-27 06:35:00
1:55 AM,54.0,54.0,100,29.76,1.2,WSW,4.6,-,N/A,,Overcast,250,2013-06-27 06:55:00
2:15 AM,53.8,53.8,100,29.76,0.2,Calm,Calm,-,N/A,Fog,Fog,0,2013-06-27 07:15:00
2:35 AM,52.7,52.7,100,29.76,0.5,Calm,Calm,-,N/A,Fog,Fog,0,2013-06-27 07:35:00
2:55 AM,52.3,52.3,100,29.76,0.5,Calm,Calm,-,N/A,Fog,Fog,0,2013-06-27 07:55:00
3:15 AM,52.7,52.7,100,29.75,0.5,Calm,Calm,-,N/A,Fog,Fog,0,2013-06-27 08:15:00
3:35 AM,53.6,53.6,100,29.75,2.5,Calm,Calm,-,N/A,,Mostly Cloudy,0,2013-06-27 08:35:00
3:55 AM,54.7,54.7,100,29.75,5.0,Calm,Calm,-,N/A,,Clear,0,2013-06-27 08:55:00
4:15 AM,55.0,55.0,100,29.76,5.0,Calm,Calm,-,N/A,,Scattered Clouds,0,2013-06-27 09:15:00
4:35 AM,57.6,57.6,100,29.76,7.0,SW,3.5,-,N/A,Rain,Light Rain,220,2013-06-27 09:35:00
4:55 AM,60.4,60.3,99,29.76,10.0,Calm,Calm,-,N/A,,Mostly Cloudy,0,2013-06-27 09:55:00
5:15 AM,62.1,61.7,99,29.76,10.0,SW,8.1,-,0.01,Rain,Light Rain,230,2013-06-27 10:15:00
5:35 AM,62.8,61.7,96,29.76,10.0,NW,4.6,-,0.02,Rain,Light Rain,310,2013-06-27 10:35:00
5:55 AM,62.2,61.3,97,29.77,10.0,Calm,Calm,-,0.04,,Overcast,0,2013-06-27 10:55:00
6:15 AM,62.6,61.0,94,29.76,10.0,Calm,Calm,-,N/A,,Scattered Clouds,0,2013-06-27 11:15:00
6:35 AM,62.2,61.3,97,29.76,10.0,Calm,Calm,-,N/A,,Clear,0,2013-06-27 11:35:00
6:55 AM,62.1,61.5,98,29.76,10.0,Calm,Calm,-,N/A,,Scattered Clouds,0,2013-06-27 11:55:00
7:15 AM,63.9,62.8,96,29.76,10.0,Calm,Calm,-,N/A,,Scattered Clouds,0,2013-06-27 12:15:00
7:35 AM,65.3,63.1,93,29.76,10.0,Calm,Calm,-,N/A,,Mostly Cloudy,0,2013-06-27 12:35:00
7:55 AM,66.2,63.7,92,29.76,10.0,WSW,3.5,-,N/A,,Mostly Cloudy,250,2013-06-27 12:55:00
8:15 AM,66.7,64.0,91,29.76,10.0,Calm,Calm,-,N/A,,Mostly Cloudy,0,2013-06-27 13:15:00
8:35 AM,68.0,63.7,86,29.76,10.0,WSW,5.8,-,N/A,,Mostly Cloudy,250,2013-06-27 13:35:00
8:55 AM,70.3,64.2,81,29.75,10.0,WSW,5.8,-,N/A,,Scattered Clouds,240,2013-06-27 13:55:00
9:15 AM,72.0,63.9,76,29.75,10.0,SW,8.1,-,N/A,,Clear,230,2013-06-27 14:15:00
9:35 AM,73.0,63.3,71,29.74,10.0,SW,9.2,-,N/A,,Clear,220,2013-06-27 14:35:00
9:55 AM,75.2,64.2,69,29.74,10.0,WSW,5.8,-,N/A,,Clear,250,2013-06-27 14:55:00
10:15 AM,74.1,63.5,69,29.73,10.0,WSW,6.9,-,N/A,,Clear,240,2013-06-27 15:15:00
10:35 AM,75.2,64.0,68,29.73,10.0,West,9.2,-,N/A,,Clear,260,2013-06-27 15:35:00
10:55 AM,77.5,65.8,67,29.72,10.0,West,6.9,-,N/A,,Clear,260,2013-06-27 15:55:00
11:15 AM,79.0,65.7,64,29.72,10.0,West,8.1,-,N/A,,Clear,260,2013-06-27 16:15:00
11:35 AM,80.4,65.8,61,29.71,10.0,West,8.1,-,N/A,,Clear,280,2013-06-27 16:35:00
11:55 AM,81.3,65.3,58,29.71,10.0,West,8.1,-,N/A,,Scattered Clouds,270,2013-06-27 16:55:00
12:15 PM,82.8,62.1,49,29.71,10.0,WNW,12.7,-,N/A,,Scattered Clouds,300,2013-06-27 17:15:00
12:35 PM,81.9,61.5,50,29.71,10.0,West,11.5,-,N/A,,Mostly Cloudy,280,2013-06-27 17:35:00
12:55 PM,79.0,60.4,53,29.71,10.0,NW,10.4,-,N/A,,Mostly Cloudy,320,2013-06-27 17:55:00
1:15 PM,84.0,62.4,48,29.71,10.0,WNW,16.1,21.9,N/A,,Scattered Clouds,300,2013-06-27 18:15:00
1:35 PM,83.3,61.2,47,29.70,10.0,WNW,11.5,23.0,N/A,,Scattered Clouds,290,2013-06-27 18:35:00
1:55 PM,84.6,61.0,45,29.70,10.0,West,13.8,20.7,N/A,,Mostly Cloudy,280,2013-06-27 18:55:00
2:15 PM,83.8,59.9,44,29.70,10.0,WNW,11.5,19.6,N/A,,Scattered Clouds,300,2013-06-27 19:15:00
2:35 PM,84.2,59.9,44,29.70,10.0,WNW,17.3,21.9,N/A,,Scattered Clouds,300,2013-06-27 19:35:00
2:55 PM,84.2,58.6,42,29.70,10.0,NW,16.1,25.3,N/A,,Clear,310,2013-06-27 19:55:00
3:15 PM,84.6,59.0,42,29.70,10.0,NW,15.0,20.7,N/A,,Scattered Clouds,310,2013-06-27 20:15:00
3:35 PM,84.0,57.7,41,29.71,10.0,WNW,19.6,28.8,N/A,,Scattered Clouds,290,2013-06-27 20:35:00
3:55 PM,84.2,58.3,41,29.70,10.0,West,19.6,25.3,N/A,,Clear,280,2013-06-27 20:55:00
4:15 PM,84.0,57.2,40,29.70,10.0,NW,19.6,31.1,N/A,,Scattered Clouds,310,2013-06-27 21:15:00
4:35 PM,83.5,56.8,40,29.71,10.0,WNW,21.9,28.8,N/A,,Scattered Clouds,290,2013-06-27 21:35:00
4:55 PM,83.7,57.2,40,29.71,10.0,WNW,21.9,28.8,N/A,,Scattered Clouds,290,2013-06-27 21:55:00
5:15 PM,82.4,56.7,41,29.71,10.0,NW,20.7,28.8,N/A,,Clear,310,2013-06-27 22:15:00
5:35 PM,82.4,57.4,42,29.71,10.0,NW,16.1,20.7,N/A,,Scattered Clouds,310,2013-06-27 22:35:00
5:55 PM,82.0,55.4,40,29.72,10.0,NW,16.1,25.3,N/A,,Scattered Clouds,310,2013-06-27 22:55:00
6:15 PM,81.5,56.1,42,29.72,10.0,NW,12.7,-,N/A,,Clear,310,2013-06-27 23:15:00
6:35 PM,80.6,56.1,43,29.71,10.0,NW,16.1,20.7,N/A,,Clear,310,2013-06-27 23:35:00
6:55 PM,79.7,57.0,46,29.72,10.0,NW,9.2,18.4,N/A,,Clear,310,2013-06-27 23:55:00
7:15 PM,77.2,56.7,49,29.72,10.0,NW,9.2,-,N/A,,Clear,310,2013-06-28 00:15:00
7:35 PM,70.2,58.1,65,29.74,10.0,West,13.8,32.2,N/A,Rain,Light Rain,260,2013-06-28 00:35:00
7:55 PM,67.3,59.0,75,29.74,10.0,West,8.1,-,N/A,,Scattered Clouds,260,2013-06-28 00:55:00
8:15 PM,67.1,59.9,78,29.75,10.0,West,15.0,19.6,N/A,,Scattered Clouds,280,2013-06-28 01:15:00
8:35 PM,67.3,60.6,79,29.74,10.0,West,9.2,-,N/A,,Clear,270,2013-06-28 01:35:00
8:55 PM,67.1,60.8,80,29.73,10.0,West,9.2,-,N/A,,Clear,260,2013-06-28 01:55:00
9:15 PM,66.2,61.0,83,29.73,10.0,WSW,6.9,-,N/A,,Clear,240,2013-06-28 02:15:00
9:35 PM,64.8,60.8,87,29.73,10.0,SW,6.9,-,N/A,,Clear,220,2013-06-28 02:35:00
9:55 PM,64.0,60.4,88,29.73,10.0,SW,6.9,-,N/A,,Clear,230,2013-06-28 02:55:00
10:15 PM,63.9,59.9,87,29.73,10.0,SW,8.1,-,N/A,,Clear,230,2013-06-28 03:15:00
10:35 PM,63.0,59.5,89,29.73,10.0,SW,6.9,-,N/A,,Clear,230,2013-06-28 03:35:00
10:55 PM,63.7,59.0,85,29.74,10.0,West,11.5,-,N/A,,Clear,260,2013-06-28 03:55:00
11:15 PM,63.7,59.0,85,29.73,10.0,West,9.2,-,N/A,,Clear,270,2013-06-28 04:15:00
11:35 PM,63.3,59.0,86,29.73,10.0,WNW,8.1,-,N/A,,Clear,290,2013-06-28 04:35:00
11:55 PM,62.6,59.0,88,29.73,10.0,West,9.2,-,N/A,,Clear,280,2013-06-28 04:55:00